This is the latest recevied weather packets stored in our database for station/object W8LMG. If no packets are shown the sender has not sent any weather packets the latest 10 day(s).
| Time | Temp. | Humidity | Pressure | Rain* | Wind** | Luminosity | Snow |
|---|---|---|---|---|---|---|---|
| 1778117916 | 13.89° C | 98% | 1012.4 hPa | 0 mm | - | 0 W/m² | - |
| 1778117613 | 13.89° C | 99% | 1011.9 hPa | 0 mm | - | 0 W/m² | - |
| 1778117311 | 13.89° C | 99% | 1012 hPa | 0 mm | - | 0 W/m² | - |
| 1778117006 | 13.89° C | 99% | 1012.2 hPa | 0 mm | - | 0 W/m² | - |
| 1778116703 | 13.89° C | 99% | 1012.4 hPa | 0 mm | - | 0 W/m² | - |
| 1778116400 | 13.89° C | 99% | 1012.3 hPa | 0 mm | - | 0 W/m² | - |
| 1778116100 | 13.89° C | 99% | 1012.4 hPa | 0 mm | - | 0 W/m² | - |
| 1778115795 | 13.89° C | 99% | 1012.1 hPa | 0 mm | - | 0 W/m² | - |
| 1778115493 | 13.89° C | 99% | 1012 hPa | 0 mm | - | 0 W/m² | - |
| 1778115190 | 13.89° C | 98% | 1011.8 hPa | 1.27 mm | - | 0 W/m² | - |
| 1778114887 | 13.89° C | 98% | 1011.8 hPa | 1.27 mm | - | 0 W/m² | - |
| 1778114584 | 14.44° C | 97% | 1011.8 hPa | 1.27 mm | - | 0 W/m² | - |
| 1778114281 | 14.44° C | 96% | 1011.9 hPa | 0 mm | - | 0 W/m² | - |
| 1778113975 | 14.44° C | 96% | 1012.2 hPa | 0 mm | - | 0 W/m² | - |
| 1778113672 | 14.44° C | 96% | 1012.2 hPa | 0 mm | - | 0 W/m² | - |
| 1778113368 | 14.44° C | 96% | 1012.1 hPa | 0 mm | - | 0 W/m² | - |
| 1778113065 | 14.44° C | 95% | 1012.2 hPa | 0 mm | - | 0 W/m² | - |
| 1778112763 | 14.44° C | 95% | 1012 hPa | 0 mm | - | 0 W/m² | - |
| 1778112458 | 15° C | 94% | 1012.2 hPa | 0 mm | - | 1 W/m² | - |
| 1778112154 | 15° C | 93% | 1011.9 hPa | 0 mm | - | 1 W/m² | - |
| 1778111851 | 15.56° C | 90% | 1012 hPa | 0 mm | - | 2 W/m² | - |
| 1778111547 | 15.56° C | 86% | 1011.8 hPa | 0 mm | - | 7 W/m² | - |
| 1778111244 | 15.56° C | 85% | 1012.1 hPa | 0 mm | - | 4 W/m² | - |
| 1778110941 | 15.56° C | 84% | 1011.9 hPa | 0 mm | - | 4 W/m² | - |
| 1778110639 | 16.11° C | 86% | 1011.9 hPa | 0 mm | - | 5 W/m² | - |
* Rain latest hour (hover to see other rain measurements)
** Current wind speed in m/s (hover to see current wind gust speed)